(°C)
21°
23°
25°
27°
29°
29°
29°
(°C)
21°
23°
25°
27°
28°
28°
27°
V
VSV
VSV
VSV
VSV
VSV
VSV
(km/h)
3-7
5-8
6-10
7-10
7-12
7-12
7-10
(mm)
0
0
0
0
0
0
0
(%)
0
0
0
0
4
4
4

Sluneční výška

/ 54.6°
sun-icon
UV 6
06:10
20:27
Ubývající měsíc (238°)
22:38
11:21

METAR pro Innsbruck (LOWI)

Čas Podmínky Teplota/
Rosný bod
Vítr Viditelnost Počasí Oblaky Tlak Změna Nezpracované
VFR 20°C / 13°C 150º variable 100º to 200º 3kt >10km - Few Clouds 3000ft 1014 No Significant change LOWI 160950Z 15003KT 100V200 9999 FEW030 20/13 Q1014 NOSIG
VFR 20°C / 15°C variable 2kt >10km - Few Clouds 3000ft 1014 No Significant change LOWI 160920Z VRB02KT 9999 FEW030 20/15 Q1014 NOSIG
VFR 19°C / 13°C variable 2kt >10km - Scattered Clouds 2500ft 1014 No Significant change LOWI 160850Z VRB02KT 9999 SCT025 19/13 Q1014 NOSIG
VFR 19°C / 14°C variable 3kt >10km - Few Clouds 2000ft
Scattered Clouds 3000ft
1014 No Significant change LOWI 160820Z VRB03KT 9999 FEW020 SCT030 19/14 Q1014 NOSIG
VFR 18°C / 15°C variable 2kt >10km - Few Clouds 1500ft
Scattered Clouds 3000ft
1014 No Significant change LOWI 160750Z VRB02KT 9999 FEW015 SCT030 18/15 Q1014 NOSIG
MVFR 17°C / 15°C variable 2kt >10km - Few Clouds 1200ft
Broken Clouds 3000ft
1014 No Significant change LOWI 160720Z VRB02KT 9999 FEW012 BKN030 17/15 Q1014 NOSIG
MVFR 16°C / 14°C 270º 3kt >10km - Few Clouds 1000ft
Scattered Clouds 1600ft
Broken Clouds 2500ft
1014 No Significant change LOWI 160650Z 27003KT 9999 FEW010 SCT016 BKN025 16/14 Q1014 NOSIG
MVFR 16°C / 14°C 270º 3kt >10km - Few Clouds 500ft
Scattered Clouds 1600ft
Broken Clouds 2500ft
1014 No Significant change LOWI 160620Z 27003KT 9999 FEW005 SCT016 BKN025 16/14 Q1014 NOSIG
MVFR 15°C / 14°C 270º 3kt >10km - Few Clouds 500ft
Scattered Clouds 1600ft
Broken Clouds 2500ft
1014 No Significant change LOWI 160550Z 27003KT 9999 FEW005 SCT016 BKN025 15/14 Q1014 NOSIG
MVFR 15°C / 14°C variable 2kt >10km - Few Clouds 500ft
Scattered Clouds 1600ft
Broken Clouds 2500ft
1014 No Significant change LOWI 160520Z VRB02KT 9999 FEW005 SCT016 BKN025 15/14 Q1014 NOSIG
MVFR 15°C / 14°C 150º 2kt >10km - Few Clouds 800ft
Broken Clouds 1600ft
Broken Clouds 2500ft
1014 No Significant change LOWI 160450Z 15002KT 9999 FEW008 BKN016 BKN025 15/14 Q1014 NOSIG
MVFR 15°C / 14°C 110º variable 080º to 140º 3kt >10km - Few Clouds 800ft
Broken Clouds 1100ft
1014 Becoming: Scattered Clouds 1200ft. Broken Clouds 2000ft. LOWI 160420Z 11003KT 080V140 9999 FEW008 BKN011 15/14 Q1014 BECMG SCT012 BKN020
MVFR 16°C / 14°C variable 2kt >10km - Few Clouds 700ft
Broken Clouds 1200ft
1014 Becoming: Few Clouds 700ft. Scattered Clouds 1500ft. LOWI 160350Z VRB02KT 9999 FEW007 BKN012 16/14 Q1014 BECMG FEW007 SCT015
IFR 16°C / 15°C 90º 2kt >10km - Few Clouds 700ft
Broken Clouds 900ft
1014 - LOWI 160320Z AUTO 09002KT 9999 FEW007 BKN009 16/15 Q1014
IFR 16°C / 15°C variable 1kt >10km - Few Clouds 600ft
Broken Clouds 800ft
1014 - LOWI 160250Z AUTO VRB01KT 9999 FEW006 BKN008 16/15 Q1014
IFR 16°C / 15°C variable 2kt >10km - Few Clouds 600ft
Broken Clouds 900ft
1014 - LOWI 160220Z AUTO VRB02KT 9999 FEW006 BKN009 16/15 Q1014
IFR 16°C / 15°C 120º 2kt >10km - Few Clouds 400ft
Broken Clouds 900ft
1014 - LOWI 160150Z AUTO 12002KT 9999 FEW004 BKN009 16/15 Q1014
MVFR 15°C / 15°C variable 2kt >10km - Few Clouds 600ft
Scattered Clouds 1000ft
Broken Clouds 2000ft
1014 - LOWI 160120Z AUTO VRB02KT 9999 FEW006 SCT010 BKN020 15/15 Q1014
IFR 16°C / 15°C variable 1kt >10km - Few Clouds 600ft
Broken Clouds 800ft
1014 - LOWI 160050Z AUTO VRB01KT 9999 FEW006 BKN008 16/15 Q1014
IFR 16°C / 15°C variable 2kt >10km - Few Clouds 500ft
Broken Clouds 700ft
1014 - LOWI 160020Z AUTO VRB02KT 9999 FEW005 BKN007 16/15 Q1014
MVFR 16°C / 15°C variable 1kt >10km - Few Clouds 500ft
Scattered Clouds 700ft
Broken Clouds 1100ft
1014 - LOWI 152350Z AUTO VRB01KT 9999 FEW005 SCT007 BKN011 16/15 Q1014
IFR 16°C / 15°C variable 2kt >10km - Few Clouds 500ft
Broken Clouds 600ft
1014 - LOWI 152320Z AUTO VRB02KT 9999 FEW005 BKN006 16/15 Q1014
IFR 16°C / 15°C 150º 2kt >10km - Broken Clouds 800ft 1014 - LOWI 152250Z AUTO 15002KT 9999 BKN008 16/15 Q1014
VFR 16°C / 16°C 100º 2kt >10km - Few Clouds 700ft
Broken Clouds 8000ft
1014 - LOWI 152220Z AUTO 10002KT 9999 FEW007 BKN080 16/16 Q1014

VFR

20°C / 13°C

[Víc]
Vítr 150º variable 100º to 200º 3kt
Viditelnost >10km
Počasí -
Oblaky Few Clouds 3000ft
Tlak 1014
Změna No Significant change
Nezpracované LOWI 160950Z 15003KT 100V200 9999 FEW030 20/13 Q1014 NOSIG

VFR

20°C / 15°C

[Víc]
Vítr variable 2kt
Viditelnost >10km
Počasí -
Oblaky Few Clouds 3000ft
Tlak 1014
Změna No Significant change
Nezpracované LOWI 160920Z VRB02KT 9999 FEW030 20/15 Q1014 NOSIG

VFR

19°C / 13°C

[Víc]
Vítr variable 2kt
Viditelnost >10km
Počasí -
Oblaky Scattered Clouds 2500ft
Tlak 1014
Změna No Significant change
Nezpracované LOWI 160850Z VRB02KT 9999 SCT025 19/13 Q1014 NOSIG

VFR

19°C / 14°C

[Víc]
Vítr variable 3kt
Viditelnost >10km
Počasí -
Oblaky Few Clouds 2000ft
Scattered Clouds 3000ft
Tlak 1014
Změna No Significant change
Nezpracované LOWI 160820Z VRB03KT 9999 FEW020 SCT030 19/14 Q1014 NOSIG

VFR

18°C / 15°C

[Víc]
Vítr variable 2kt
Viditelnost >10km
Počasí -
Oblaky Few Clouds 1500ft
Scattered Clouds 3000ft
Tlak 1014
Změna No Significant change
Nezpracované LOWI 160750Z VRB02KT 9999 FEW015 SCT030 18/15 Q1014 NOSIG

MVFR

17°C / 15°C

[Víc]
Vítr variable 2kt
Viditelnost >10km
Počasí -
Oblaky Few Clouds 1200ft
Broken Clouds 3000ft
Tlak 1014
Změna No Significant change
Nezpracované LOWI 160720Z VRB02KT 9999 FEW012 BKN030 17/15 Q1014 NOSIG

MVFR

16°C / 14°C

[Víc]
Vítr 270º 3kt
Viditelnost >10km
Počasí -
Oblaky Few Clouds 1000ft
Scattered Clouds 1600ft
Broken Clouds 2500ft
Tlak 1014
Změna No Significant change
Nezpracované LOWI 160650Z 27003KT 9999 FEW010 SCT016 BKN025 16/14 Q1014 NOSIG

MVFR

16°C / 14°C

[Víc]
Vítr 270º 3kt
Viditelnost >10km
Počasí -
Oblaky Few Clouds 500ft
Scattered Clouds 1600ft
Broken Clouds 2500ft
Tlak 1014
Změna No Significant change
Nezpracované LOWI 160620Z 27003KT 9999 FEW005 SCT016 BKN025 16/14 Q1014 NOSIG

MVFR

15°C / 14°C

[Víc]
Vítr 270º 3kt
Viditelnost >10km
Počasí -
Oblaky Few Clouds 500ft
Scattered Clouds 1600ft
Broken Clouds 2500ft
Tlak 1014
Změna No Significant change
Nezpracované LOWI 160550Z 27003KT 9999 FEW005 SCT016 BKN025 15/14 Q1014 NOSIG

MVFR

15°C / 14°C

[Víc]
Vítr variable 2kt
Viditelnost >10km
Počasí -
Oblaky Few Clouds 500ft
Scattered Clouds 1600ft
Broken Clouds 2500ft
Tlak 1014
Změna No Significant change
Nezpracované LOWI 160520Z VRB02KT 9999 FEW005 SCT016 BKN025 15/14 Q1014 NOSIG

MVFR

15°C / 14°C

[Víc]
Vítr 150º 2kt
Viditelnost >10km
Počasí -
Oblaky Few Clouds 800ft
Broken Clouds 1600ft
Broken Clouds 2500ft
Tlak 1014
Změna No Significant change
Nezpracované LOWI 160450Z 15002KT 9999 FEW008 BKN016 BKN025 15/14 Q1014 NOSIG

MVFR

15°C / 14°C

[Víc]
Vítr 110º variable 080º to 140º 3kt
Viditelnost >10km
Počasí -
Oblaky Few Clouds 800ft
Broken Clouds 1100ft
Tlak 1014
Změna Becoming: Scattered Clouds 1200ft. Broken Clouds 2000ft.
Nezpracované LOWI 160420Z 11003KT 080V140 9999 FEW008 BKN011 15/14 Q1014 BECMG SCT012 BKN020

MVFR

16°C / 14°C

[Víc]
Vítr variable 2kt
Viditelnost >10km
Počasí -
Oblaky Few Clouds 700ft
Broken Clouds 1200ft
Tlak 1014
Změna Becoming: Few Clouds 700ft. Scattered Clouds 1500ft.
Nezpracované LOWI 160350Z VRB02KT 9999 FEW007 BKN012 16/14 Q1014 BECMG FEW007 SCT015

IFR

16°C / 15°C

[Víc]
Vítr 90º 2kt
Viditelnost >10km
Počasí -
Oblaky Few Clouds 700ft
Broken Clouds 900ft
Tlak 1014
Změna -
Nezpracované LOWI 160320Z AUTO 09002KT 9999 FEW007 BKN009 16/15 Q1014

IFR

16°C / 15°C

[Víc]
Vítr variable 1kt
Viditelnost >10km
Počasí -
Oblaky Few Clouds 600ft
Broken Clouds 800ft
Tlak 1014
Změna -
Nezpracované LOWI 160250Z AUTO VRB01KT 9999 FEW006 BKN008 16/15 Q1014

IFR

16°C / 15°C

[Víc]
Vítr variable 2kt
Viditelnost >10km
Počasí -
Oblaky Few Clouds 600ft
Broken Clouds 900ft
Tlak 1014
Změna -
Nezpracované LOWI 160220Z AUTO VRB02KT 9999 FEW006 BKN009 16/15 Q1014

IFR

16°C / 15°C

[Víc]
Vítr 120º 2kt
Viditelnost >10km
Počasí -
Oblaky Few Clouds 400ft
Broken Clouds 900ft
Tlak 1014
Změna -
Nezpracované LOWI 160150Z AUTO 12002KT 9999 FEW004 BKN009 16/15 Q1014

MVFR

15°C / 15°C

[Víc]
Vítr variable 2kt
Viditelnost >10km
Počasí -
Oblaky Few Clouds 600ft
Scattered Clouds 1000ft
Broken Clouds 2000ft
Tlak 1014
Změna -
Nezpracované LOWI 160120Z AUTO VRB02KT 9999 FEW006 SCT010 BKN020 15/15 Q1014

IFR

16°C / 15°C

[Víc]
Vítr variable 1kt
Viditelnost >10km
Počasí -
Oblaky Few Clouds 600ft
Broken Clouds 800ft
Tlak 1014
Změna -
Nezpracované LOWI 160050Z AUTO VRB01KT 9999 FEW006 BKN008 16/15 Q1014

IFR

16°C / 15°C

[Víc]
Vítr variable 2kt
Viditelnost >10km
Počasí -
Oblaky Few Clouds 500ft
Broken Clouds 700ft
Tlak 1014
Změna -
Nezpracované LOWI 160020Z AUTO VRB02KT 9999 FEW005 BKN007 16/15 Q1014

MVFR

16°C / 15°C

[Víc]
Vítr variable 1kt
Viditelnost >10km
Počasí -
Oblaky Few Clouds 500ft
Scattered Clouds 700ft
Broken Clouds 1100ft
Tlak 1014
Změna -
Nezpracované LOWI 152350Z AUTO VRB01KT 9999 FEW005 SCT007 BKN011 16/15 Q1014

IFR

16°C / 15°C

[Víc]
Vítr variable 2kt
Viditelnost >10km
Počasí -
Oblaky Few Clouds 500ft
Broken Clouds 600ft
Tlak 1014
Změna -
Nezpracované LOWI 152320Z AUTO VRB02KT 9999 FEW005 BKN006 16/15 Q1014

IFR

16°C / 15°C

[Víc]
Vítr 150º 2kt
Viditelnost >10km
Počasí -
Oblaky Broken Clouds 800ft
Tlak 1014
Změna -
Nezpracované LOWI 152250Z AUTO 15002KT 9999 BKN008 16/15 Q1014

VFR

16°C / 16°C

[Víc]
Vítr 100º 2kt
Viditelnost >10km
Počasí -
Oblaky Few Clouds 700ft
Broken Clouds 8000ft
Tlak 1014
Změna -
Nezpracované LOWI 152220Z AUTO 10002KT 9999 FEW007 BKN080 16/16 Q1014

TAF pro Innsbruck (LOWI)

From till


Maximum Temperature 29ºC on . Minimum Temperature 15ºC on .
From till Wind 80º 3kt. Visibility 10km or more. Scattered Clouds 1000ft. Broken Clouds 2000ft.
Becoming from till Wind 80º 3kt. Visibility 10km or more. Nil Significant Cloud.
Becoming from till Wind 80º 8kt. Visibility 10km or more. Nil Significant Cloud.
Becoming from till Wind 270º 3kt. Visibility 10km or more. Nil Significant Cloud.
Temporarly from till Wind 270º 9kt.

Nezpracované: TAF LOWI 160515Z 1606/1706 08003KT 9999 SCT010 BKN020 TX29/1615Z TN15/1704Z BECMG 1607/1609 CAVOK BECMG 1609/1611 08008KT BECMG 1618/1620 27003KT TEMPO 1702/1706 27009KT

Radar pro Innsbruck

Mrholení
Slabé
Střední
Silné
Velmi silné
Kroupy

Značka lokality je umístněna na Innsbruck. Tato animace ukazuje srážky zaznamenané radarem za poslední hodinu a také 2h předpověď. Mrholení nebo slabé sněžení může být pro radar neviditelné. Intenzita srážek je barevně označena od světle modré po oranžovou.
Copyright 2022 Deutscher Wetterdienst / meteoblue.

Aktuální snímky ze satelitu a srážky pro Innsbruck, Rakousko

Značka polohy je umístěna na Innsbruck. [Víc]

Satelitní snímek v reálném čase kombinuje viditelné světlo během dne s infračerveným zářením během noci. V noci není obraz tmavý, protože infračervené záření dokáže detekovat teplotní rozdíly. Nízká oblačnost a mlha se bohužel těžko odlišují od pozemních teplot, a proto mohou být během noci téměř neviditelné. Satelitní snímky z Meteosatu pro Evropu jsou aktualizovány v reálném čase každých 5 minut. Snímky z GOES-16/GOES-17 (Severní a Jižní Amerika) a Himawari (Asie) jsou aktualizovány) každých 10 minut.

Srážky jsou odhadované na základě radaru a satelitů. V noci jsou odhady srážek ze satelitů méně přesné než během dne. Oranžové křížky označují místa, kde byl zaznamenán blesk (za Evropa).

Copyright 2022 EUMETSAT / meteoblue. Údaje o blescích poskytuje nowcast.

Zpět nahoru